Regional Weather Roundup
Issued by NWS

Home | Current Version | Previous Version | Graphics & Text | Print | Product List | Glossary On
Versions: 1 2 3 4 5 6 7 8 9 10 11 12 13 14 15 16 17 18 19 20 21 22 23 24 25 26 27 28 29 30 31 32 33 34 35 36 37 38 39 40 41 42 43 44 45 46 47 48 49 50
350
ASUS43 KOAX 030810
RWRNE

WEATHER ROUNDUP FOR NEBRASKA
NATIONAL WEATHER SERVICE OMAHA NE
200 AM CST SAT DEC 03 2016

NOTES: SATELLITE DATA IS BEING USED TO AUGMENT CLOUD COVER ABOVE
       12000 FEET.
       "FAIR" INDICATES FEW OR NO CLOUDS BELOW 12,000 FEET WITH NO
       SIGNIFICANT WEATHER AND/OR OBSTRUCTIONS TO VISIBILITY.

  * THESE STATIONS DO NOT REPORT WEATHER SUCH AS RAIN...SNOW OR FOG.

NEZ001>004-019>022-054>056-030900-
NEBRASKA PANHANDLE

CITY           SKY/WX    TMP DP  RH WIND       PRES   REMARKS
ALLIANCE       PTCLDY    16  12  84 S8        30.12F WCI   5
CHADRON        PTCLDY    17  13  84 W3        30.11F
KIMBALL        CLOUDY    27  24  89 S12       30.12F WCI  17
SIDNEY         CLOUDY    26  22  84 SW8       30.15F WCI  18
$$

NEZ057>060-069>072-079>082-030900-
SOUTHWEST NEBRASKA

CITY           SKY/WX    TMP DP  RH WIND       PRES   REMARKS
IMPERIAL       PTCLDY    27  21  78 S7        30.22F WCI  19
LEXINGTON      CLOUDY    28  25  89 CALM      30.27F
MCCOOK         CLOUDY    30  22  72 S6        30.26F WCI  24
OGALLALA       CLOUDY    28  24  84 CALM      30.20F
$$

NEZ005>010-023>029-035>040-094-030900-
NORTH CENTRAL NEBRASKA

CITY           SKY/WX    TMP DP  RH WIND       PRES   REMARKS
AINSWORTH      CLEAR     20  18  93 S6        30.19F WCI  12
BROKEN BOW     CLOUDY    27  23  85 CALM      30.25F
O`NEILL        CLEAR     26  24  93 S8        30.25F WCI  17
ORD            PTCLDY    20  17  88 NE3       30.27
THEDFORD       CLOUDY    27  23  85 CALM      30.21F
$$

NEZ041-046>049-061>064-073>077-083>087-030900-
SOUTH CENTRAL NEBRASKA

CITY           SKY/WX    TMP DP  RH WIND       PRES   REMARKS
GRAND ISLAND   PTCLDY    25  23  92 S7        30.31  WCI  17
AURORA         CLEAR     27  25  91 S6        30.30F WCI  21
HASTINGS       CLOUDY    28  23  81 S6        30.31F WCI  22
HEBRON         CLOUDY    27  24  89 CALM      30.33F
HOLDREGE       CLEAR     28  24  82 S7        30.28F WCI  21
YORK           PTCLDY    25  25 100 S6        30.31F WCI  18
$$

NEZ011>018-030>034-042>045-030900-
NORTHEAST NEBRASKA

CITY           SKY/WX    TMP DP  RH WIND       PRES   REMARKS
NORFOLK        CLEAR     24  21  88 S6        30.31S WCI  17
ALBION         PTCLDY    22  20  93 SE5       30.31S WCI  16
BLAIR          CLEAR     26  24  91 S3        30.34R
FREMONT        CLEAR     25  25  99 CALM      30.35S
TEKAMAH        CLEAR     26  22  84 SW3       30.36
WAYNE          CLEAR     19  17  93 S3        30.32S
$$

NEZ050>053-065>068-078-088>093-030900-
SOUTHEAST NEBRASKA

CITY           SKY/WX    TMP DP  RH WIND       PRES   REMARKS
LINCOLN        CLOUDY    22  19  89 N3        30.36F
OMAHA EPPLEY   MOCLDY    25  21  85 SE7       30.37S WCI  17
BEATRICE       CLOUDY    29  26  88 CALM      30.34S
NEBRASKA CITY  CLEAR     28  24  86 SW5       30.35S WCI  23
PLATTSMOUTH    CLEAR     29  24  83 CALM      30.35F
$$

NEZ044-045-051>053-067-030900-
OMAHA AREA

CITY           SKY/WX    TMP DP  RH WIND       PRES   REMARKS
OMAHA EPPLEY   MOCLDY    25  21  85 SE7       30.37S WCI  17
BLAIR          CLEAR     26  24  91 S3        30.34R
FREMONT        CLEAR     25  25  99 CALM      30.35S
MILLARD        CLEAR     27  25  93 CALM      30.36F
OFFUTT AFB     CLEAR     24  24  99 E1        30.35F
PLATTSMOUTH    CLEAR     29  24  83 CALM      30.35F
WAHOO          FAIR      23  21  93 SW3       30.35F
$$




USA.gov is the U.S. government's official web portal to all federal, state and local government web resources and services.